When you browse on this site, cookies collect data to enhance your experience and personalize the content and advertising you see.
Visit our Privacy Policy to learn more. By continuing to use the site, you agree to this use of cookies and data.
EN

Hourly Weather Bobo-Dioulasso

Today, 12 August, Wednesday

Time Temperature Precipitation Wind Pressure Humidity
00:00 +23°C° 0.1 mm 2 mps 723 mmHg 96%
01:00 +22°C° 0.1 mm 3 mps 722 mmHg 96%
02:00 +22°C° 0.1 mm 3 mps 722 mmHg 95%
03:00 +22°C° 0.1 mm 3 mps 722 mmHg 95%
04:00 +22°C° 0.1 mm 3 mps 722 mmHg 95%
05:00 +22°C° 0.1 mm 3 mps 722 mmHg 95%
06:00 +22°C° 0.1 mm 3 mps 722 mmHg 95%
07:00 +22°C° 0 mm 3 mps 723 mmHg 94%
08:00 +22°C° 0 mm 3 mps 723 mmHg 93%
09:00 +22°C° 0 mm 3 mps 724 mmHg 93%
10:00 +25°C° 0 mm 3 mps 724 mmHg 88%
11:00 +26°C° 0 mm 4 mps 724 mmHg 84%
12:00 +27°C° 0 mm 4 mps 724 mmHg 79%
13:00 +27°C° 0.5 mm 4 mps 724 mmHg 80%
14:00 +27°C° 0.5 mm 4 mps 723 mmHg 80%
15:00 +28°C° 0.5 mm 4 mps 723 mmHg 80%
16:00 +27°C° 0.8 mm 4 mps 723 mmHg 84%
17:00 +26°C° 0.8 mm 4 mps 723 mmHg 87%
18:00 +25°C° 0.8 mm 3 mps 723 mmHg 90%
19:00 +24°C° 0 mm 3 mps 723 mmHg 91%
20:00 +24°C° 0 mm 3 mps 724 mmHg 93%
21:00 +23°C° 0 mm 2 mps 724 mmHg 94%
22:00 +23°C° 0 mm 2 mps 724 mmHg 94%
23:00 +21°C° 0 mm 2 mps 724 mmHg 95%

Tomorrow, 13 August, Thursday

Time Temperature Precipitation Wind Pressure Humidity
00:00 +21°C° 0 mm 2 mps 724 mmHg 95%
01:00 +21°C° 0 mm 2 mps 724 mmHg 95%
02:00 +21°C° 0 mm 2 mps 724 mmHg 95%
03:00 +22°C° 0 mm 1 mps 723 mmHg 96%
04:00 +22°C° 0 mm 1 mps 724 mmHg 96%
05:00 +22°C° 0 mm 1 mps 724 mmHg 96%
06:00 +21°C° 0 mm 1 mps 724 mmHg 96%
07:00 +23°C° 0 mm 1 mps 724 mmHg 90%
08:00 +25°C° 0 mm 2 mps 725 mmHg 85%
09:00 +26°C° 0 mm 2 mps 725 mmHg 79%
10:00 +27°C° 0 mm 2 mps 725 mmHg 75%
11:00 +28°C° 0 mm 2 mps 725 mmHg 70%
12:00 +30°C° 0 mm 2 mps 725 mmHg 66%
13:00 +30°C° 0 mm 1 mps 724 mmHg 65%
14:00 +30°C° 0 mm 1 mps 724 mmHg 65%
15:00 +30°C° 0 mm 1 mps 723 mmHg 65%
16:00 +30°C° 0 mm 1 mps 723 mmHg 69%
17:00 +29°C° 0 mm 1 mps 723 mmHg 73%
18:00 +28°C° 0 mm 1 mps 723 mmHg 78%
19:00 +27°C° 0 mm 1 mps 723 mmHg 81%
20:00 +26°C° 0 mm 1 mps 723 mmHg 83%
21:00 +25°C° 0 mm 1 mps 724 mmHg 86%
22:00 +25°C° 0 mm 1 mps 724 mmHg 86%
23:00 +25°C° 0 mm 1 mps 724 mmHg 86%

Day after tomorrow, 14 August, Friday

Time Temperature Precipitation Wind Pressure Humidity
00:00 +24°C° 0 mm 1 mps 724 mmHg 87%
01:00 +24°C° 0 mm 1 mps 723 mmHg 88%
02:00 +24°C° 0 mm 1 mps 723 mmHg 89%
03:00 +24°C° 0 mm 2 mps 722 mmHg 90%
04:00 +24°C° 0 mm 2 mps 722 mmHg 90%
05:00 +23°C° 0 mm 2 mps 722 mmHg 90%
06:00 +23°C° 0 mm 2 mps 722 mmHg 90%
07:00 +25°C° 0 mm 2 mps 723 mmHg 86%
08:00 +27°C° 0 mm 2 mps 723 mmHg 81%
09:00 +28°C° 0 mm 2 mps 723 mmHg 76%
10:00 +30°C° 0 mm 3 mps 723 mmHg 71%
11:00 +31°C° 0 mm 3 mps 723 mmHg 66%
12:00 +33°C° 0 mm 3 mps 722 mmHg 61%
13:00 +33°C° 0.1 mm 3 mps 722 mmHg 62%
14:00 +33°C° 0.1 mm 3 mps 721 mmHg 63%
15:00 +32°C° 0.1 mm 2 mps 720 mmHg 63%
16:00 +31°C° 0.9 mm 2 mps 720 mmHg 69%
17:00 +30°C° 0.9 mm 2 mps 720 mmHg 75%
18:00 +30°C° 0.9 mm 1 mps 720 mmHg 80%
19:00 +28°C° 4.5 mm 2 mps 720 mmHg 83%
20:00 +27°C° 4.5 mm 2 mps 721 mmHg 85%
21:00 +26°C° 4.5 mm 3 mps 721 mmHg 87%
22:00 +25°C° 7.8 mm 3 mps 721 mmHg 89%
23:00 +24°C° 7.8 mm 3 mps 721 mmHg 91%

15 August, Saturday

Time Temperature Precipitation Wind Pressure Humidity
00:00 +22°C° 7.8 mm 3 mps 721 mmHg 93%
01:00 +22°C° 0.3 mm 3 mps 721 mmHg 93%
02:00 +23°C° 0.3 mm 2 mps 720 mmHg 93%
03:00 +23°C° 0.3 mm 1 mps 720 mmHg 93%
04:00 +23°C° 0 mm 1 mps 720 mmHg 93%
05:00 +23°C° 0 mm 1 mps 720 mmHg 94%
06:00 +23°C° 0 mm 2 mps 720 mmHg 94%
07:00 +24°C° 0 mm 2 mps 721 mmHg 92%
08:00 +25°C° 0 mm 2 mps 721 mmHg 91%
09:00 +26°C° 0 mm 3 mps 722 mmHg 89%
10:00 +27°C° 0 mm 3 mps 722 mmHg 84%
11:00 +28°C° 0 mm 4 mps 721 mmHg 79%
12:00 +29°C° 0 mm 4 mps 721 mmHg 74%
13:00 +29°C° 0.1 mm 4 mps 721 mmHg 75%
14:00 +29°C° 0.1 mm 4 mps 721 mmHg 75%
15:00 +29°C° 0.1 mm 4 mps 720 mmHg 75%
16:00 +28°C° 0.7 mm 3 mps 720 mmHg 80%
17:00 +27°C° 0.7 mm 3 mps 720 mmHg 85%
18:00 +26°C° 0.7 mm 3 mps 720 mmHg 90%
19:00 +25°C° 0.9 mm 3 mps 720 mmHg 92%
20:00 +25°C° 0.9 mm 3 mps 721 mmHg 94%
21:00 +24°C° 0.9 mm 3 mps 721 mmHg 96%
22:00 +24°C° 0.7 mm 3 mps 721 mmHg 96%
23:00 +24°C° 0.7 mm 3 mps 721 mmHg 96%

16 August, Sunday

Time Temperature Precipitation Wind Pressure Humidity
00:00 +22°C° 0.7 mm 4 mps 721 mmHg 96%
01:00 +22°C° 0 mm 4 mps 721 mmHg 96%
02:00 +22°C° 0 mm 3 mps 721 mmHg 96%
03:00 +22°C° 0 mm 3 mps 721 mmHg 96%
04:00 +22°C° 0 mm 3 mps 721 mmHg 95%
05:00 +22°C° 0 mm 3 mps 721 mmHg 95%
06:00 +22°C° 0 mm 3 mps 721 mmHg 95%
07:00 +24°C° 0 mm 3 mps 722 mmHg 93%
08:00 +23°C° 0 mm 4 mps 722 mmHg 91%
09:00 +25°C° 0 mm 4 mps 723 mmHg 89%
10:00 +26°C° 0 mm 4 mps 723 mmHg 85%
11:00 +27°C° 0 mm 4 mps 723 mmHg 81%
12:00 +28°C° 0 mm 4 mps 723 mmHg 77%
13:00 +29°C° 0.1 mm 4 mps 722 mmHg 75%
14:00 +29°C° 0.1 mm 3 mps 721 mmHg 72%
15:00 +30°C° 0.1 mm 3 mps 721 mmHg 70%
16:00 +29°C° 0 mm 3 mps 721 mmHg 74%
17:00 +29°C° 0 mm 2 mps 720 mmHg 77%
18:00 +28°C° 0 mm 2 mps 720 mmHg 80%
19:00 +27°C° 0 mm 2 mps 721 mmHg 84%
20:00 +26°C° 0 mm 1 mps 721 mmHg 87%
21:00 +25°C° 0 mm 1 mps 722 mmHg 90%
22:00 +25°C° 0 mm 2 mps 722 mmHg 91%
23:00 +24°C° 0 mm 2 mps 722 mmHg 92%

17 August, Monday

Time Temperature Precipitation Wind Pressure Humidity
00:00 +24°C° 0 mm 2 mps 722 mmHg 94%
01:00 +24°C° 0 mm 2 mps 722 mmHg 94%
02:00 +24°C° 0 mm 2 mps 722 mmHg 95%
03:00 +23°C° 0 mm 2 mps 722 mmHg 96%
04:00 +23°C° 0 mm 2 mps 722 mmHg 96%
05:00 +23°C° 0 mm 2 mps 722 mmHg 96%
06:00 +23°C° 0 mm 2 mps 722 mmHg 97%
07:00 +24°C° 0 mm 2 mps 722 mmHg 91%
08:00 +26°C° 0 mm 2 mps 723 mmHg 86%
09:00 +27°C° 0 mm 3 mps 723 mmHg 80%
10:00 +28°C° 0 mm 3 mps 723 mmHg 76%
11:00 +29°C° 0 mm 3 mps 723 mmHg 72%
12:00 +30°C° 0 mm 3 mps 722 mmHg 68%
13:00 +31°C° 0 mm 3 mps 722 mmHg 67%
14:00 +31°C° 0 mm 3 mps 721 mmHg 67%
15:00 +31°C° 0 mm 3 mps 721 mmHg 66%
16:00 +30°C° 0 mm 2 mps 720 mmHg 71%
17:00 +29°C° 0 mm 2 mps 720 mmHg 75%
18:00 +29°C° 0 mm 2 mps 720 mmHg 79%
19:00 +28°C° 0 mm 2 mps 721 mmHg 81%
20:00 +27°C° 0 mm 1 mps 721 mmHg 83%
21:00 +26°C° 0 mm 1 mps 722 mmHg 85%
22:00 +26°C° 0.2 mm 1 mps 722 mmHg 86%
23:00 +26°C° 0.2 mm 2 mps 722 mmHg 87%
Show more